Regional Weather Roundup
Issued by NWS

Home | Current Version | Previous Version | Graphics & Text | Print | Product List | Glossary Off
Versions: 1 2 3 4 5 6 7 8 9 10 11 12 13 14 15 16 17 18 19 20 21 22 23 24 25 26 27 28 29 30 31 32 33 34 35 36 37 38 39 40 41 42 43 44 45 46 47 48 49 50

000
ASUS43 KMPX 250601
RWRMN
WEATHER ROUNDUP FOR MINNESOTA
NATIONAL WEATHER SERVICE TWIN CITIES/CHANHASSEN MN
100 AM CDT MON MAY 25 2015


NOTE: "FAIR" INDICATES FEW OR NO CLOUDS BELOW 12,000 FEET WITH NO
SIGNIFICANT WEATHER AND/OR OBSTRUCTIONS TO VISIBILITY. N/A MEANS
CURRENT SKY AND/OR WEATHER CONDITIONS ARE NOT AVAILABLE.

MNZ060>063-068>070-250700-
   Twin Cities Metro

CITY           SKY/WX    TMP DP  RH WIND       PRES   REMARKS
TWIN CITIES    LGT RAIN  58  57  97 E9        29.75F
6HR MIN TEMP:  58; 6HR MAX TEMP:  60; 6HR PCP:  0.23;

ST PAUL        LGT RAIN  58  57  97 E6        29.76F
CRYSTAL        LGT RAIN  58  57  97 E7        29.74F FOG
BLAINE         LGT RAIN  59  59 100 E9        29.76F
LAKEVILLE      DRIZZLE   57  57 100 E7        29.74F
EDEN PRAIRIE   LGT RAIN  58  57  97 E9        29.73F FOG
6HR MIN TEMP:  58; 6HR MAX TEMP:  59; 6HR PCP:  0.18;

SOUTH ST PAUL  CLOUDY    58  57  96 E6        29.75F
LAKE ELMO      DRIZZLE   57  57 100 E5        29.78F
$$
MNZ001>005-007-008-013>017-022>024-027-028-250700-
   Northwest Minnesota

CITY           SKY/WX    TMP DP  RH WIND       PRES   REMARKS
BEMIDJI        CLOUDY    58  51  76 CALM      29.87F
HALLOCK        MOCLDY    55  48  76 N6        29.87S
ROSEAU         CLOUDY    57  52  82 CALM      29.88S
WARROAD        CLOUDY    55  52  88 CALM      29.88S
THIEF RVR FALL CLOUDY    61  48  63 CALM      29.87F
CROOKSTON      CLOUDY    63  50  63 NE5       29.86F
FOSSTON        CLOUDY    57  46  67 CALM      29.87F
DETROIT LAKES  DRIZZLE   57  54  88 E5        29.86F
MOORHEAD       DRIZZLE   61  55  82 E5        29.85F
PARK RAPIDS    LGT RAIN  58  54  86 NE7       29.85F
MAHNOMEN       CLOUDY    60  51  73 SE3       29.86F
$$
MNZ006-009>011-018-025>026-250700-
   North Central Minnesota

CITY           SKY/WX    TMP DP  RH WIND       PRES   REMARKS
BAUDETTE       CLOUDY    57  51  80 CALM      29.87F
FLAG ISLAND    CLOUDY    59  55  88 N6        29.86F
INTL FALLS     CLOUDY    58  49  72 NW3       29.86F
6HR MIN TEMP:  53; 6HR MAX TEMP:  74;

WASKISH        CLOUDY    55  54  94 CALM      29.87F
BIG FORK       CLOUDY    57  52  82 CALM      29.88F
LONGVILLE      LGT RAIN  57  55  94 CALM      29.86F
GRAND RAPIDS   CLOUDY    55  52  88 CALM      29.89F
CRANE LAKE     CLOUDY    52  48  87 CALM      29.89F
ORR            CLOUDY    55  48  76 CALM      29.86F
COOK           CLOUDY    57  52  82 CALM      29.89F
WALKER         DRIZZLE   56  55  94 CALM      29.88F
$$
MNZ012-019>021-037-250700-
   Northeast Minnesota

CITY           SKY/WX    TMP DP  RH WIND       PRES   REMARKS
DULUTH         LGT RAIN  58  56  93 E8        29.88F FOG
6HR MIN TEMP:  58; 6HR MAX TEMP:  66; 6HR PCP:  0.09;

ELY            CLOUDY    57  46  67 CALM      29.90F
HIBBING        LGT RAIN  55  52  89 CALM      29.89F
EVELETH        CLOUDY    57  52  82 CALM      29.91F
DULUTH HARBOR  LGT RAIN  46  46 100 E9        29.88F
TWO HARBORS    LGT RAIN  61  55  82 N3        29.88F
GRAND MARAIS     N/A     48  39  71 CALM      29.89F
G MARAIS ARPRT CLOUDY    52  39  62 CALM      29.93F
$$
MNZ029>031-032-039>041-046>048-054>057-064-250700-
   West Central Minnesota

CITY           SKY/WX    TMP DP  RH WIND       PRES   REMARKS
FERGUS FALLS   LGT RAIN  57  57 100 E8        29.82F
WHEATON        RAIN      55  55 100 N6        29.81F
MORRIS         LGT RAIN  57  57 100 NE8       29.77F
ALEXANDRIA     LGT RAIN  57  57 100 NE12      29.80F
ELBOW LAKE     LGT RAIN  57  56  97 NE8       29.80F
WADENA         RAIN      55  54  94 NE9       29.83F
GLENWOOD       CLOUDY    57  55  94 NE12      29.79F
APPLETON       DRIZZLE   59  55  88 NE7       29.76F
BENSON         DRIZZLE   57  55  94 E3        29.76F
ORTONVILLE     DRIZZLE   57  55  94 NE7       29.78F
MADISON        CLOUDY    57  55  94 NE7       29.77F
WILLMAR        DRIZZLE   57  57 100 NE7       29.76F
$$
MNZ033>034-036-042>043-049>051-058-059-250700-
   Central Minnesota

CITY           SKY/WX    TMP DP  RH WIND       PRES   REMARKS
ST CLOUD       LGT RAIN  57  56  96 E6        29.77F
6HR MIN TEMP:  57; 6HR MAX TEMP:  58; 6HR PCP:  0.25;

SAUK CENTRE    DRIZZLE   56  56  97 NE9       29.79F
PAYNESVILLE    RAIN      55  55 100 N9        29.77F
AITKIN         LGT RAIN  57  52  82 NE6       29.83F
PINE RIVER     LGT RAIN  55  55 100 NE6       29.89F
BRAINERD       LGT RAIN  57  56  96 NE8       29.83F FOG
STAPLES        LGT RAIN  55  55 100 NE5       29.82F
LONG PRAIRIE   DRIZZLE   55  54  94 NE6       29.80F
LITTLE FALLS   RAIN      55  54  94 NE5       29.80F
LITCHFIELD     CLOUDY    57  57 100 E9        29.76F
BUFFALO        DRIZZLE   57  55  92 NE8       29.76F
MAPLE LAKE     DRIZZLE   58  57  97 E10       29.76F
$$
MNZ037-044-045-052-053-250700-
   East Central Minnesota

CITY           SKY/WX    TMP DP  RH WIND       PRES   REMARKS
PRINCETON      RAIN      59  57  94 NE8       29.78F
MORA           HVY RAIN  54  52  94 CALM      29.82F
CAMBRIDGE      LGT RAIN  59  52  77 NE6       29.76F
RUSH CITY      DRIZZLE   57  56  96 NE6       29.80F
MOOSE LAKE     LGT RAIN  57  55  94 NE6       29.83F
HINCKLEY       RAIN      57  57 100 NE6       29.82F
CLOQUET        LGT RAIN  57  55  94 E6        29.86F
MCGREGOR       CLOUDY    55  55 100 NE5       29.86F
$$
MNZ071>073-080-081-089-090-097-098-250700-
   Southwest Minnesota

CITY           SKY/WX    TMP DP  RH WIND       PRES   REMARKS
MONTEVIDEO     DRIZZLE   57  57 100 E6        29.77F
GRANITE FALLS  RAIN      57  57  98 NE5       29.76F
CANBY          RAIN      57  56  96 NE5       29.78S
MARSHALL       CLOUDY    57  54  88 NE7       29.75F
REDWOOD FALLS  LGT RAIN  58  57  97 VRB3      29.73F FOG
OLIVIA         DRIZZLE   55  54  94 NE5       29.74F
WINDOM         DRZL/FOG  59  57  94 CALM      29.73F VSB 1/4
WORTHINGTON    CLOUDY    59  55  88 CALM      29.75F VSB 3/4
JACKSON        FOG       59  59 100 NW3       29.74F VSB 1/4
TRACY          LGT RAIN  58  58  99 NE3       29.75F
SLAYTON        LGT RAIN  57  57 100 CALM      29.75F
$$
MNZ065>067-074>077-082>085-091>093-250700-
   South Central Minnesota

CITY           SKY/WX    TMP DP  RH WIND       PRES   REMARKS
MANKATO        CLOUDY    61  57  88 SE5       29.73F
NEW ULM        DRIZZLE   57  57 100 E5        29.73F
ST JAMES       CLOUDY    61  61 100 NE3       29.72F FOG
FAIRMONT       CLOUDY    61  57  88 S6        29.72F
GLENCOE        DRIZZLE   59  58  99 NE6       29.73F
FARIBAULT      RAIN      61  59  94 E7        29.74F
OWATONNA       RAIN      61  57  88 SE9       29.74F
WASECA         DRIZZLE   59  57  94 SE9       29.74F
ALBERT LEA     DRIZZLE   63  63 100 SE7       29.73F
$$
MNZ078>079-086>088-094>096-250700-
   Southeast Minnesota

CITY           SKY/WX    TMP DP  RH WIND       PRES   REMARKS
ROCHESTER      CLOUDY    59  58  96 SE9       29.77F FOG
6HR MIN TEMP:  59; 6HR MAX TEMP:  59; 6HR PCP: TRACE;

RED WING       HVY RAIN  57  57 100 E9        29.75F
STANTON        CLOUDY    60  58  92 E9        29.73F FOG
DODGE CENTER   CLOUDY    61  59  94 SE10      29.75F FOG
WINONA         RAIN      59  57  94 SE6       29.77F
AUSTIN         CLOUDY    61  59  94 SE7       29.74F FOG
PRESTON        CLOUDY    58  57  97 E3        29.77F FOG
$$
ABBREVIATIONS USED IN REMARKS
   TC - TEMPERATURES IN CELSIUS
  WCI - WIND CHILL INDEX
   HX - HEAT INDEX
  VSB - VISIBILITY
$$


USA.gov is the U.S. government's official web portal to all federal, state and local government web resources and services.